Tracking 20232 objects as of 22-Jan-2020
HD Live streaming from Space Station
objects crossing your sky now

TITAN 3C TRANSTAGE DEB

Track TITAN 3C TRANSTAGE DEB now!


NORAD ID: 26050
Int'l Code: 1965-108AJ
Perigee: 974.8 km
Apogee: 29,873.4 km
Inclination: 26.5 °
Period: 533.7 minutes
Semi major axis: 21795 km
RCS: 0.1424 m2 (medium)
Launch date: December 21, 1965
Source: United States (US)
Launch site: AIR FORCE EASTERN TEST RANGE (AFETR)

Note: This is SATELLITE DEBRIS
aabbcc
Your satellite tracking list
Your tracking list is empty




NASA's NSSDC Master Catalog

Two Line Element Set (TLE):
1 26050U 65108AJ  20018.22118971 -.00000205 +00000-0 -84977-2 0  9991
2 26050 026.4944 055.0862 6629623 188.9513 147.5026 02.69814247203226
Source of the keplerian elements: AFSPC